Location: Newark
(52.2090°N, 4.1550°W)
Time: 05:17:53
(UTC+00:00)

Explorer 7 - Pass Details

Date: 28 September 2019
Orbit: 485 x 680 km, 50.3° (Epoch: 18 October)

Event Time Altitude Azimuth Distance (km) Brightness Sun altitude
Rises 02:26:31 0° 280° (W) 2,938 - -31.9°
Reaches altitude 10° 02:29:27 10° 262° (W) 2,057 - -31.6°
Maximum altitude 02:32:36 18° 220° (SW) 1,623 - -31.3°
Drops below altitude 10° 02:35:49 10° 178° (S) 2,098 - -31.0°
Sets 02:38:51 0° 160° (SSE) 3,020 - -30.6°
